Lid_Strength_Index
12 13 13 13 13 14 14 14 14 14 13 13 13 13 14 14 15 15 15 16 15 16
13 14 14 14 13 14 14 14 14 14 14 13 13 14 14 14 15 15 16 16 16 16
14 14 14 14 14 15 14 14 14 14 14 14 14 14 15 15 15 15 16 16 16 16
15 15 14 15 15 15 15 15 14 14 14 14 14 14 14 15 15 15 15 16 16 16
16 16 16 16 15 15 15 15 14 14 14 14 14 14 14 14 15 16 16 16 16 16
17 17 17 17 17 15 15 15 15 14 14 14 14 14 14 14 14 14 14 15 16 16
18 17 17 16 16 16 15 14 14 14 14 14 13 14 14 14 14 15 16 16 16 15
17 16 16 16 16 15 15 14 14 14 14 13 13 13 14 14 14 15 16 15 15 15
17 17 17 17 17 16 16 15 14 14 14 14 13 11 12 13 15 14 15 15 15 14
17 17 17 17 17 16 17 16 16 16 15 15 15 11 10 11 13 14 14 14 14 13
16 16 16 16 17 17 17 17 17 17 16 16 14 11 10 10 13 14 13 13 13 13
17 17 17 17 17 17 18 17 17 15 16 17 15 11 10 10 13 14 13 13 12 12
17 16 17 17 17 17 18 16 13 13 16 13 16 11 10 11 14 15 12 12 12 10
18 17 18 18 16 16 17 17 18 15 16 16 14 15 10 9 14 14 14 11 11 10